EXS9FB LGPZ-EGBB

Flight info

Callsign EXS9FB
Flight time 3h 4m
Altitude 34000
Route MALED UA14 KRK UM127 NIKRO DCT TIRCA DCT RODON DCT VAKSU DCT VEKEN/N0443F360 DCT ERKIR DCT BABEG DCT LIRSU DCT DENUT L610 HEMEL
Aircraft A21N/M-SDE2E3FGHIJ1RWXY/LB1

Departure

Time 2026-05-06 14:28
Airport Aktion National Airport (LGPZ)

Arrival

Time 2026-05-06 17:33
Airport Birmingham Airport (EGBB)
Time Latitude Longitude Altitude Speed Heading
2026-05-06 13:48 38.93047 20.77333 21 ft 0 kts 338°
2026-05-06 14:17 38.93039 20.77337 21 ft 4 kts 338°
2026-05-06 14:17 38.93014 20.77350 19 ft 4 kts 338°
2026-05-06 14:17 38.92994 20.77360 21 ft 4 kts 340°
2026-05-06 14:17 38.92972 20.77363 20 ft 4 kts 35°
2026-05-06 14:18 38.92962 20.77343 23 ft 2 kts 68°
2026-05-06 14:18 38.92962 20.77341 23 ft 0 kts 68°
2026-05-06 14:21 38.92963 20.77345 23 ft 2 kts 68°
2026-05-06 14:21 38.92972 20.77374 20 ft 5 kts 71°
2026-05-06 14:21 38.92973 20.77381 21 ft 0 kts 75°
2026-05-06 14:23 38.92972 20.77389 21 ft 2 kts 110°
2026-05-06 14:23 38.92956 20.77410 20 ft 4 kts 144°
2026-05-06 14:23 38.92921 20.77432 20 ft 7 kts 158°
2026-05-06 14:23 38.92879 20.77467 19 ft 9 kts 112°
2026-05-06 14:24 38.92890 20.77553 20 ft 11 kts 67°
2026-05-06 14:24 38.92923 20.77652 22 ft 13 kts 67°
2026-05-06 14:24 38.92907 20.77762 23 ft 16 kts 154°
2026-05-06 14:24 38.92836 20.77845 22 ft 16 kts 72°
2026-05-06 14:25 38.92879 20.77982 22 ft 17 kts 68°
2026-05-06 14:25 38.92921 20.78106 25 ft 5 kts 52°
2026-05-06 14:25 38.92956 20.78102 24 ft 6 kts 333°
2026-05-06 14:25 38.92993 20.78060 27 ft 8 kts 310°
2026-05-06 14:26 38.93023 20.77992 27 ft 9 kts 277°
2026-05-06 14:26 38.93009 20.77924 26 ft 2 kts 248°
2026-05-06 14:26 38.93009 20.77923 26 ft 0 kts 247°
2026-05-06 14:27 38.93008 20.77920 27 ft 4 kts 247°
2026-05-06 14:27 38.92905 20.77591 20 ft 78 kts 249°
2026-05-06 14:27 38.92837 20.77405 20 ft 84 kts 236°
2026-05-06 14:27 38.92775 20.77249 21 ft 94 kts 253°
2026-05-06 14:28 38.92676 20.76866 24 ft 117 kts 247°
2026-05-06 14:28 38.92301 20.75685 67 ft 161 kts 249°
2026-05-06 14:28 38.91877 20.74310 560 ft 167 kts 250°
2026-05-06 14:28 38.91545 20.72862 1150 ft 175 kts 268°
2026-05-06 14:29 38.91698 20.71244 1607 ft 191 kts 278°
2026-05-06 14:29 38.91884 20.69489 2116 ft 206 kts 276°
2026-05-06 14:29 38.92065 20.67582 2502 ft 228 kts 276°
2026-05-06 14:29 38.92261 20.65446 2857 ft 249 kts 276°
2026-05-06 14:30 38.92495 20.63203 3545 ft 256 kts 281°
2026-05-06 14:30 38.93152 20.61068 4332 ft 260 kts 303°
2026-05-06 14:30 38.94406 20.59383 5114 ft 265 kts 319°
2026-05-06 14:30 38.95845 20.57913 5804 ft 270 kts 321°
2026-05-06 14:31 38.97332 20.56413 6589 ft 272 kts 320°
2026-05-06 14:31 38.98814 20.54893 7339 ft 273 kts 320°
2026-05-06 14:31 39.00299 20.53350 8120 ft 276 kts 320°
2026-05-06 14:31 39.01797 20.51780 8986 ft 278 kts 319°
2026-05-06 14:32 39.03300 20.50195 9852 ft 279 kts 319°
2026-05-06 14:32 39.04813 20.48599 10484 ft 288 kts 319°
2026-05-06 14:32 39.06414 20.46911 10785 ft 307 kts 319°
2026-05-06 14:32 39.08094 20.45143 11145 ft 322 kts 319°
2026-05-06 14:33 39.09839 20.43294 11785 ft 328 kts 319°
2026-05-06 14:33 39.11610 20.41414 12478 ft 331 kts 319°
2026-05-06 14:33 39.13403 20.39516 13179 ft 335 kts 319°
2026-05-06 14:33 39.15219 20.37590 13849 ft 339 kts 319°
2026-05-06 14:34 39.17057 20.35646 14449 ft 343 kts 319°
2026-05-06 14:34 39.18910 20.33688 15074 ft 346 kts 319°
2026-05-06 14:34 39.20775 20.31715 15706 ft 348 kts 319°
2026-05-06 14:34 39.22657 20.29720 16329 ft 351 kts 319°
2026-05-06 14:35 39.24570 20.27741 16952 ft 354 kts 320°
2026-05-06 14:35 39.26501 20.25758 17566 ft 357 kts 320°
2026-05-06 14:35 39.28424 20.23775 18174 ft 359 kts 320°
2026-05-06 14:35 39.30380 20.21749 18720 ft 362 kts 320°
2026-05-06 14:36 39.32354 20.19701 19231 ft 364 kts 320°
2026-05-06 14:36 39.34337 20.17647 19743 ft 367 kts 320°
2026-05-06 14:36 39.36341 20.15580 20240 ft 370 kts 320°
2026-05-06 14:36 39.38354 20.13497 20724 ft 372 kts 320°
2026-05-06 14:37 39.40389 20.11402 21221 ft 375 kts 320°
2026-05-06 14:37 39.42433 20.09289 21707 ft 378 kts 320°
2026-05-06 14:37 39.44591 20.07326 22180 ft 382 kts 329°
2026-05-06 14:37 39.47048 20.05931 22651 ft 387 kts 337°
2026-05-06 14:38 39.49596 20.04751 23121 ft 390 kts 338°
2026-05-06 14:38 39.52173 20.03575 23620 ft 393 kts 338°
2026-05-06 14:38 39.54753 20.02393 23998 ft 395 kts 338°
2026-05-06 14:38 39.57353 20.01188 24388 ft 397 kts 338°
2026-05-06 14:39 39.59957 19.99972 24777 ft 399 kts 338°
2026-05-06 14:39 39.62583 19.98741 25150 ft 401 kts 337°
2026-05-06 14:39 39.65212 19.97500 25539 ft 403 kts 337°
2026-05-06 14:39 39.67860 19.96252 25910 ft 405 kts 337°
2026-05-06 14:40 39.70515 19.95003 26275 ft 407 kts 337°
2026-05-06 14:40 39.73180 19.93744 26638 ft 409 kts 337°
2026-05-06 14:40 39.75834 19.92489 26969 ft 411 kts 337°
2026-05-06 14:40 39.78525 19.91218 27308 ft 413 kts 337°
2026-05-06 14:41 39.81268 19.89920 27639 ft 415 kts 336°
2026-05-06 14:41 39.83952 19.88647 27989 ft 416 kts 336°
2026-05-06 14:41 39.86684 19.87355 28314 ft 418 kts 336°
2026-05-06 14:41 39.89419 19.86061 28642 ft 419 kts 336°
2026-05-06 14:42 39.92171 19.84755 28952 ft 421 kts 336°
2026-05-06 14:42 39.94928 19.83445 29253 ft 423 kts 336°
2026-05-06 14:42 39.97700 19.82130 29547 ft 425 kts 336°
2026-05-06 14:42 40.00486 19.80806 29832 ft 426 kts 336°
2026-05-06 14:43 40.03280 19.79476 30116 ft 428 kts 336°
2026-05-06 14:43 40.06079 19.78144 30376 ft 430 kts 336°
2026-05-06 14:43 40.08900 19.76799 30617 ft 431 kts 336°
2026-05-06 14:43 40.11727 19.75449 30862 ft 433 kts 336°
2026-05-06 14:44 40.14566 19.74092 31093 ft 435 kts 336°
2026-05-06 14:44 40.17379 19.72744 31342 ft 436 kts 336°
2026-05-06 14:44 40.20228 19.71379 31638 ft 436 kts 336°
2026-05-06 14:45 40.25915 19.68653 32239 ft 434 kts 335°
2026-05-06 14:45 40.28747 19.67287 32533 ft 433 kts 336°
2026-05-06 14:45 40.31576 19.65927 32808 ft 433 kts 336°
2026-05-06 14:45 40.34403 19.64568 33086 ft 432 kts 336°
2026-05-06 14:46 40.37227 19.63207 33359 ft 431 kts 336°
2026-05-06 14:46 40.40045 19.61854 33611 ft 430 kts 336°
2026-05-06 14:46 40.42857 19.60502 33824 ft 430 kts 336°
2026-05-06 14:46 40.45659 19.59148 34052 ft 430 kts 336°
2026-05-06 14:47 40.48473 19.57782 34114 ft 431 kts 336°
2026-05-06 14:47 40.54063 19.55081 34102 ft 430 kts 336°
2026-05-06 14:48 40.59679 19.52367 34086 ft 430 kts 336°
2026-05-06 14:48 40.65288 19.49644 34088 ft 430 kts 336°
2026-05-06 14:49 40.70892 19.46918 34093 ft 430 kts 336°
2026-05-06 14:49 40.76501 19.44180 34089 ft 428 kts 335°
2026-05-06 14:50 40.82061 19.41471 34088 ft 428 kts 335°
2026-05-06 14:50 40.87665 19.38735 34083 ft 428 kts 335°
2026-05-06 14:51 40.93257 19.35999 34082 ft 428 kts 335°
2026-05-06 14:51 40.98839 19.33263 34092 ft 428 kts 335°
2026-05-06 14:52 41.04422 19.30514 34088 ft 427 kts 335°
2026-05-06 14:52 41.10001 19.27768 34085 ft 428 kts 335°
2026-05-06 14:53 41.15536 19.25033 34079 ft 427 kts 335°
2026-05-06 14:53 41.21113 19.22276 34079 ft 427 kts 335°
2026-05-06 14:54 41.26680 19.19522 34082 ft 427 kts 335°
2026-05-06 14:54 41.32249 19.16757 34084 ft 427 kts 335°
2026-05-06 14:55 41.37813 19.13991 34078 ft 426 kts 335°
2026-05-06 14:55 41.43375 19.11218 34090 ft 427 kts 334°
2026-05-06 14:56 41.47676 19.08191 34078 ft 417 kts 319°
2026-05-06 14:56 41.52267 19.03495 34084 ft 416 kts 317°
2026-05-06 14:57 41.56847 18.98759 34086 ft 416 kts 317°
2026-05-06 14:57 41.61406 18.94081 34083 ft 415 kts 318°
2026-05-06 14:58 41.65993 18.89370 34087 ft 418 kts 317°
2026-05-06 14:58 41.70616 18.84612 34073 ft 419 kts 317°
2026-05-06 14:59 41.75237 18.79850 34080 ft 419 kts 317°
2026-05-06 14:59 41.79857 18.75066 34067 ft 421 kts 317°
2026-05-06 15:00 41.84506 18.70267 34064 ft 422 kts 317°
2026-05-06 15:00 41.89155 18.65452 34074 ft 422 kts 317°
2026-05-06 15:01 41.93807 18.60622 34071 ft 423 kts 317°
2026-05-06 15:01 41.98437 18.55806 34065 ft 423 kts 318°
2026-05-06 15:02 42.03089 18.50970 34066 ft 423 kts 318°
2026-05-06 15:02 42.07785 18.46169 34063 ft 423 kts 318°
2026-05-06 15:03 42.12469 18.41367 34060 ft 423 kts 319°
2026-05-06 15:03 42.17136 18.36572 34062 ft 421 kts 319°
2026-05-06 15:04 42.21798 18.31767 34066 ft 421 kts 319°
2026-05-06 15:04 42.26423 18.26994 34068 ft 421 kts 319°
2026-05-06 15:05 42.31079 18.22180 34076 ft 421 kts 319°
2026-05-06 15:05 42.35735 18.17353 34081 ft 421 kts 319°
2026-05-06 15:06 42.40383 18.12527 34063 ft 421 kts 319°
2026-05-06 15:06 42.45027 18.07696 34053 ft 421 kts 319°
2026-05-06 15:07 42.49642 18.02882 34061 ft 421 kts 319°
2026-05-06 15:07 42.54288 17.98034 34057 ft 421 kts 319°
2026-05-06 15:08 42.58927 17.93181 34051 ft 421 kts 319°
2026-05-06 15:08 42.63572 17.88312 34063 ft 422 kts 319°
2026-05-06 15:09 42.68211 17.83438 34045 ft 422 kts 319°
2026-05-06 15:09 42.72850 17.78561 34052 ft 422 kts 319°
2026-05-06 15:10 42.77471 17.73685 34051 ft 422 kts 318°
2026-05-06 15:10 42.82115 17.68778 34042 ft 423 kts 318°
2026-05-06 15:11 42.86766 17.63857 34047 ft 423 kts 318°
2026-05-06 15:11 42.91419 17.58923 34039 ft 424 kts 318°
2026-05-06 15:12 42.96071 17.53978 34037 ft 424 kts 318°
2026-05-06 15:12 43.00731 17.49015 34038 ft 423 kts 318°
2026-05-06 15:13 43.05368 17.44070 34035 ft 423 kts 318°
2026-05-06 15:13 43.09981 17.39139 34046 ft 424 kts 318°
2026-05-06 15:14 43.14662 17.34122 34038 ft 428 kts 318°
2026-05-06 15:14 43.19353 17.29087 34035 ft 428 kts 318°
2026-05-06 15:15 43.24046 17.24042 34037 ft 428 kts 318°
2026-05-06 15:15 43.28736 17.18990 34035 ft 428 kts 317°
2026-05-06 15:16 43.33417 17.13933 34048 ft 428 kts 317°
2026-05-06 15:16 43.38070 17.08898 34038 ft 428 kts 317°
2026-05-06 15:17 43.42749 17.03826 34042 ft 428 kts 316°
2026-05-06 15:17 43.47425 16.98746 34033 ft 428 kts 316°
2026-05-06 15:18 43.52100 16.93656 34031 ft 428 kts 316°
2026-05-06 15:18 43.56764 16.88568 34031 ft 428 kts 316°
2026-05-06 15:19 43.61396 16.83505 34031 ft 427 kts 316°
2026-05-06 15:19 43.66057 16.78399 34027 ft 427 kts 316°
2026-05-06 15:20 43.70711 16.73292 34027 ft 427 kts 316°
2026-05-06 15:20 43.75356 16.68187 34030 ft 426 kts 316°
2026-05-06 15:21 43.79985 16.63086 34030 ft 425 kts 315°
2026-05-06 15:21 43.84613 16.57974 34029 ft 426 kts 315°
2026-05-06 15:22 43.89256 16.52843 34016 ft 426 kts 315°
2026-05-06 15:22 43.93878 16.47720 34019 ft 426 kts 315°
2026-05-06 15:23 43.98483 16.42606 34013 ft 425 kts 315°
2026-05-06 15:23 44.03085 16.37480 34011 ft 424 kts 315°
2026-05-06 15:24 44.07698 16.32330 33995 ft 425 kts 315°
2026-05-06 15:24 44.12320 16.27164 33990 ft 425 kts 315°
2026-05-06 15:25 44.16924 16.22006 33990 ft 425 kts 315°
2026-05-06 15:25 44.21522 16.16844 33996 ft 424 kts 315°
2026-05-06 15:26 44.26104 16.11690 33995 ft 426 kts 315°
2026-05-06 15:26 44.30698 16.06516 33988 ft 427 kts 315°
2026-05-06 15:27 44.35310 16.01313 33987 ft 427 kts 315°
2026-05-06 15:27 44.39925 15.96091 33996 ft 426 kts 315°
2026-05-06 15:28 44.44533 15.90865 33988 ft 425 kts 314°
2026-05-06 15:28 44.49132 15.85636 33982 ft 428 kts 314°
2026-05-06 15:29 44.53766 15.80357 33979 ft 429 kts 314°
2026-05-06 15:29 44.58401 15.75067 33977 ft 429 kts 314°
2026-05-06 15:30 44.63031 15.69771 33970 ft 429 kts 314°
2026-05-06 15:30 44.67651 15.64475 33981 ft 427 kts 314°
2026-05-06 15:31 44.72245 15.59199 33966 ft 429 kts 315°
2026-05-06 15:31 44.76846 15.53903 33969 ft 430 kts 315°
2026-05-06 15:32 44.83790 15.45886 33954 ft 430 kts 315°
2026-05-06 15:32 44.88415 15.40534 33947 ft 430 kts 315°
2026-05-06 15:33 44.93037 15.35179 33958 ft 430 kts 315°
2026-05-06 15:33 44.97653 15.29815 33948 ft 429 kts 315°
2026-05-06 15:34 45.02265 15.24444 33947 ft 430 kts 315°
2026-05-06 15:34 45.06870 15.19063 33947 ft 429 kts 315°
2026-05-06 15:35 45.11476 15.13675 33938 ft 429 kts 315°
2026-05-06 15:35 45.16077 15.08285 33937 ft 429 kts 315°
2026-05-06 15:36 45.20700 15.02856 33950 ft 432 kts 314°
2026-05-06 15:36 45.25326 14.97408 33954 ft 433 kts 314°
2026-05-06 15:37 45.29928 14.91980 33951 ft 432 kts 314°
2026-05-06 15:37 45.34556 14.86507 33951 ft 432 kts 314°
2026-05-06 15:38 45.39188 14.81016 33958 ft 434 kts 315°
2026-05-06 15:38 45.43802 14.75532 33965 ft 435 kts 314°
2026-05-06 15:39 45.48443 14.70006 33961 ft 434 kts 314°
2026-05-06 15:39 45.53076 14.64482 33955 ft 434 kts 314°
2026-05-06 15:40 45.57703 14.58945 33953 ft 434 kts 314°
2026-05-06 15:40 45.62341 14.53389 33950 ft 436 kts 314°
2026-05-06 15:41 45.66994 14.47800 33950 ft 437 kts 314°
2026-05-06 15:41 45.71619 14.42233 33945 ft 437 kts 314°
2026-05-06 15:42 45.76264 14.36632 33944 ft 437 kts 314°
2026-05-06 15:42 45.80913 14.31007 33941 ft 437 kts 314°
2026-05-06 15:43 45.85550 14.25387 33949 ft 435 kts 313°
2026-05-06 15:43 45.90167 14.19780 33941 ft 435 kts 313°
2026-05-06 15:44 45.94759 14.14192 33936 ft 435 kts 313°
2026-05-06 15:44 45.99379 14.08554 33934 ft 435 kts 313°
2026-05-06 15:45 46.03990 14.02918 33930 ft 434 kts 313°
2026-05-06 15:45 46.08585 13.97285 33942 ft 433 kts 312°
2026-05-06 15:46 46.12403 13.92591 33934 ft 434 kts 312°
2026-05-06 15:46 46.17009 13.86921 33923 ft 435 kts 312°
2026-05-06 15:47 46.21616 13.81241 33916 ft 435 kts 312°
2026-05-06 15:47 46.26220 13.75546 33910 ft 435 kts 312°
2026-05-06 15:48 46.30813 13.69854 33915 ft 435 kts 311°
2026-05-06 15:48 46.35368 13.64197 33909 ft 434 kts 311°
2026-05-06 15:49 46.39956 13.58481 33916 ft 435 kts 311°
2026-05-06 15:49 46.44551 13.52751 33883 ft 435 kts 311°
2026-05-06 15:50 46.49140 13.47014 33878 ft 434 kts 311°
2026-05-06 15:50 46.53721 13.41264 33925 ft 435 kts 311°
2026-05-06 15:51 46.58211 13.35426 33878 ft 435 kts 308°
2026-05-06 15:51 46.62598 13.29395 33882 ft 435 kts 309°
2026-05-06 15:52 46.66990 13.23344 33874 ft 434 kts 309°
2026-05-06 15:52 46.71370 13.17302 33865 ft 434 kts 309°
2026-05-06 15:53 46.75750 13.11251 33868 ft 434 kts 308°
2026-05-06 15:53 46.80119 13.05193 33857 ft 433 kts 308°
2026-05-06 15:54 46.84463 12.99162 33834 ft 431 kts 308°
2026-05-06 15:54 46.88818 12.93098 33850 ft 433 kts 308°
2026-05-06 15:55 46.93176 12.87013 33815 ft 433 kts 308°
2026-05-06 15:55 46.97531 12.80921 33807 ft 432 kts 308°
2026-05-06 15:56 47.01888 12.74806 33808 ft 435 kts 307°
2026-05-06 15:56 47.06256 12.68671 33784 ft 434 kts 307°
2026-05-06 15:57 47.10620 12.62513 33795 ft 435 kts 307°
2026-05-06 15:57 47.14982 12.56346 33760 ft 436 kts 307°
2026-05-06 15:58 47.19338 12.50177 33770 ft 439 kts 307°
2026-05-06 15:58 47.23728 12.43952 33754 ft 437 kts 307°
2026-05-06 15:59 47.28094 12.37739 33732 ft 437 kts 307°
2026-05-06 15:59 47.32461 12.31512 33716 ft 436 kts 307°
2026-05-06 16:00 47.36821 12.25278 33736 ft 436 kts 306°
2026-05-06 16:00 47.41157 12.19072 33921 ft 434 kts 306°
2026-05-06 16:01 47.43326 12.15955 34078 ft 436 kts 306°
2026-05-06 16:01 47.45492 12.12841 34301 ft 435 kts 307°
2026-05-06 16:01 47.47663 12.09717 34496 ft 437 kts 307°
2026-05-06 16:01 47.49846 12.06570 34699 ft 438 kts 307°
2026-05-06 16:02 47.52028 12.03426 34859 ft 438 kts 307°
2026-05-06 16:02 47.54123 12.00177 34994 ft 432 kts 301°
2026-05-06 16:02 47.55954 11.96660 35106 ft 431 kts 298°
2026-05-06 16:02 47.57742 11.93090 35236 ft 432 kts 298°
2026-05-06 16:03 47.59526 11.89515 35348 ft 432 kts 298°
2026-05-06 16:03 47.61314 11.85938 35427 ft 432 kts 299°
2026-05-06 16:03 47.64881 11.78816 35645 ft 433 kts 299°
2026-05-06 16:04 47.68481 11.71623 35721 ft 434 kts 299°
2026-05-06 16:04 47.72079 11.64414 35734 ft 434 kts 299°
2026-05-06 16:05 47.75671 11.57195 35736 ft 434 kts 299°
2026-05-06 16:05 47.79253 11.49985 35756 ft 433 kts 299°
2026-05-06 16:06 47.82829 11.42753 35786 ft 435 kts 300°
2026-05-06 16:06 47.86428 11.35468 35792 ft 437 kts 300°
2026-05-06 16:07 47.90033 11.28149 35791 ft 439 kts 299°
2026-05-06 16:07 47.93644 11.20794 35801 ft 439 kts 299°
2026-05-06 16:08 47.97253 11.13428 35797 ft 439 kts 299°
2026-05-06 16:08 48.00858 11.06049 35826 ft 442 kts 299°
2026-05-06 16:09 48.04459 10.98659 35801 ft 443 kts 299°
2026-05-06 16:09 48.08080 10.91209 35796 ft 443 kts 299°
2026-05-06 16:10 48.11702 10.83724 35790 ft 443 kts 299°
2026-05-06 16:10 48.15315 10.76251 35805 ft 443 kts 299°
2026-05-06 16:11 48.18920 10.68771 35791 ft 443 kts 299°
2026-05-06 16:11 48.22524 10.61272 35791 ft 443 kts 299°
2026-05-06 16:12 48.26125 10.53758 35801 ft 443 kts 299°
2026-05-06 16:12 48.29696 10.46285 35801 ft 443 kts 299°
2026-05-06 16:13 48.33285 10.38753 35790 ft 442 kts 299°
2026-05-06 16:13 48.36868 10.31210 35809 ft 444 kts 300°
2026-05-06 16:14 48.40477 10.23597 35792 ft 446 kts 300°
2026-05-06 16:14 48.44033 10.16075 35794 ft 446 kts 300°
2026-05-06 16:15 48.47623 10.08457 35799 ft 444 kts 299°
2026-05-06 16:15 48.51196 10.00842 35790 ft 445 kts 299°
2026-05-06 16:16 48.54783 9.93191 35810 ft 447 kts 300°
2026-05-06 16:16 48.58370 9.85516 35801 ft 448 kts 300°
2026-05-06 16:17 48.61961 9.77814 35794 ft 449 kts 300°
2026-05-06 16:17 48.65555 9.70080 35801 ft 448 kts 300°
2026-05-06 16:18 48.69240 9.62435 35810 ft 450 kts 302°
2026-05-06 16:18 48.72994 9.54918 35819 ft 450 kts 302°
2026-05-06 16:19 48.76800 9.47270 35807 ft 450 kts 302°
2026-05-06 16:19 48.80572 9.39673 35802 ft 451 kts 302°
2026-05-06 16:20 48.84316 9.32105 35815 ft 450 kts 301°
2026-05-06 16:20 48.88094 9.24451 35811 ft 451 kts 301°
2026-05-06 16:21 48.91850 9.16818 35819 ft 451 kts 301°
2026-05-06 16:21 48.95607 9.09160 35811 ft 451 kts 302°
2026-05-06 16:22 48.99348 9.01488 35802 ft 451 kts 301°
2026-05-06 16:22 49.03093 8.93814 35796 ft 451 kts 302°
2026-05-06 16:23 49.06841 8.86128 35803 ft 451 kts 302°
2026-05-06 16:23 49.10552 8.78480 35791 ft 451 kts 302°
2026-05-06 16:24 49.14282 8.70766 35801 ft 451 kts 302°
2026-05-06 16:24 49.18003 8.63051 35800 ft 451 kts 302°
2026-05-06 16:25 49.21724 8.55314 35796 ft 451 kts 302°
2026-05-06 16:25 49.25434 8.47577 35800 ft 451 kts 302°
2026-05-06 16:26 49.29139 8.39828 35785 ft 451 kts 302°
2026-05-06 16:26 49.32814 8.32110 35794 ft 451 kts 302°
2026-05-06 16:27 49.36514 8.24326 35792 ft 451 kts 302°
2026-05-06 16:27 49.40207 8.16541 35790 ft 451 kts 302°
2026-05-06 16:28 49.43881 8.08742 35790 ft 451 kts 301°
2026-05-06 16:28 49.47542 8.00900 35795 ft 451 kts 302°
2026-05-06 16:29 49.51248 7.93083 35786 ft 452 kts 302°
2026-05-06 16:29 49.54910 7.85293 35784 ft 452 kts 302°
2026-05-06 16:30 49.57366 7.80035 35785 ft 452 kts 302°
2026-05-06 16:30 49.62254 7.69543 35785 ft 452 kts 302°
2026-05-06 16:31 49.65299 7.62982 35792 ft 453 kts 302°
2026-05-06 16:31 49.68959 7.55079 35785 ft 453 kts 302°
2026-05-06 16:32 49.72622 7.47138 35783 ft 453 kts 302°
2026-05-06 16:32 49.76279 7.39203 35793 ft 452 kts 302°
2026-05-06 16:33 49.79920 7.31236 35791 ft 452 kts 301°
2026-05-06 16:34 49.85371 7.19298 35798 ft 452 kts 302°
2026-05-06 16:34 49.88986 7.11316 35793 ft 452 kts 302°
2026-05-06 16:35 49.92616 7.03337 35809 ft 453 kts 302°
2026-05-06 16:35 49.96263 6.95359 35807 ft 454 kts 302°
2026-05-06 16:36 49.99885 6.87353 35811 ft 452 kts 302°
2026-05-06 16:36 50.03463 6.79399 35824 ft 450 kts 302°
2026-05-06 16:37 50.07043 6.71412 35805 ft 450 kts 302°
2026-05-06 16:37 50.10618 6.63426 35810 ft 450 kts 302°
2026-05-06 16:38 50.14196 6.55409 35813 ft 450 kts 302°
2026-05-06 16:38 50.17752 6.47395 35799 ft 449 kts 302°
2026-05-06 16:39 50.21118 6.39179 35822 ft 448 kts 299°
2026-05-06 16:39 50.24377 6.30882 35821 ft 448 kts 298°
2026-05-06 16:40 50.27607 6.22580 35837 ft 446 kts 299°
2026-05-06 16:40 50.30874 6.14316 35840 ft 446 kts 299°
2026-05-06 16:41 50.34115 6.06030 35862 ft 446 kts 298°
2026-05-06 16:41 50.37317 5.97711 35869 ft 446 kts 298°
2026-05-06 16:42 50.40527 5.89403 35875 ft 446 kts 299°
2026-05-06 16:42 50.43726 5.81139 35877 ft 446 kts 299°
2026-05-06 16:43 50.46944 5.72804 35881 ft 446 kts 299°
2026-05-06 16:43 50.50158 5.64473 35884 ft 446 kts 299°
2026-05-06 16:44 50.53359 5.56126 35899 ft 447 kts 298°
2026-05-06 16:44 50.56563 5.47729 35887 ft 448 kts 299°
2026-05-06 16:45 50.59765 5.39370 35887 ft 448 kts 298°
2026-05-06 16:45 50.62993 5.30896 35883 ft 448 kts 298°
2026-05-06 16:46 50.66175 5.22436 35881 ft 448 kts 298°
2026-05-06 16:46 50.69351 5.14047 35880 ft 448 kts 298°
2026-05-06 16:47 50.72536 5.05609 35882 ft 447 kts 298°
2026-05-06 16:47 50.75696 4.97165 35876 ft 447 kts 298°
2026-05-06 16:48 50.78848 4.88695 35877 ft 446 kts 298°
2026-05-06 16:48 50.81996 4.80245 35875 ft 446 kts 298°
2026-05-06 16:49 50.85137 4.71782 35880 ft 446 kts 298°
2026-05-06 16:49 50.86702 4.67533 35689 ft 447 kts 296°
2026-05-06 16:49 50.88269 4.63264 35779 ft 448 kts 296°
2026-05-06 16:50 50.91412 4.54721 35864 ft 446 kts 296°
2026-05-06 16:50 50.94511 4.46313 35878 ft 443 kts 296°
2026-05-06 16:51 50.97618 4.37854 35876 ft 443 kts 296°
2026-05-06 16:51 51.00709 4.29372 35882 ft 443 kts 296°
2026-05-06 16:52 51.03796 4.20873 35888 ft 443 kts 296°
2026-05-06 16:52 51.06877 4.12375 35891 ft 443 kts 296°
2026-05-06 16:53 51.09923 4.03930 35892 ft 443 kts 296°
2026-05-06 16:53 51.13004 3.95367 35891 ft 443 kts 296°
2026-05-06 16:54 51.16064 3.86853 35885 ft 442 kts 295°
2026-05-06 16:54 51.19070 3.78370 35907 ft 443 kts 296°
2026-05-06 16:55 51.22109 3.69830 35902 ft 443 kts 296°
2026-05-06 16:55 51.24305 3.60722 35912 ft 437 kts 279°
2026-05-06 16:56 51.25539 3.51318 35906 ft 435 kts 278°
2026-05-06 16:56 51.26771 3.41863 35917 ft 435 kts 278°
2026-05-06 16:57 51.27977 3.32396 35932 ft 434 kts 278°
2026-05-06 16:57 51.29181 3.23010 35936 ft 434 kts 279°
2026-05-06 16:58 51.30384 3.13567 35927 ft 433 kts 278°
2026-05-06 16:58 51.31584 3.04143 35935 ft 433 kts 278°
2026-05-06 16:59 51.32778 2.94719 35932 ft 432 kts 278°
2026-05-06 16:59 51.33951 2.85280 35946 ft 432 kts 278°
2026-05-06 17:00 51.35132 2.75838 35933 ft 432 kts 278°
2026-05-06 17:00 51.36294 2.66410 35944 ft 432 kts 278°
2026-05-06 17:01 51.37459 2.57030 35947 ft 432 kts 278°
2026-05-06 17:01 51.38596 2.47523 35941 ft 432 kts 278°
2026-05-06 17:02 51.39725 2.38137 35953 ft 432 kts 278°
2026-05-06 17:02 51.40882 2.28654 35943 ft 434 kts 278°
2026-05-06 17:03 51.42041 2.19154 35947 ft 434 kts 278°
2026-05-06 17:03 51.43207 2.09673 35948 ft 434 kts 278°
2026-05-06 17:04 51.44362 2.00183 35949 ft 434 kts 278°
2026-05-06 17:04 51.45483 1.90695 35957 ft 434 kts 278°
2026-05-06 17:05 51.46587 1.81166 35957 ft 434 kts 278°
2026-05-06 17:05 51.47685 1.71634 35950 ft 434 kts 278°
2026-05-06 17:06 51.48757 1.62140 35960 ft 435 kts 278°
2026-05-06 17:06 51.49853 1.52591 35960 ft 435 kts 278°
2026-05-06 17:07 51.50942 1.43045 35966 ft 435 kts 278°
2026-05-06 17:07 51.52006 1.33475 35965 ft 436 kts 278°
2026-05-06 17:08 51.53054 1.23884 35963 ft 435 kts 278°
2026-05-06 17:08 51.54105 1.14312 35961 ft 433 kts 278°
2026-05-06 17:09 51.55497 1.05047 35960 ft 427 kts 284°
2026-05-06 17:09 51.57186 0.95788 35977 ft 435 kts 284°
2026-05-06 17:10 51.58872 0.86373 35999 ft 439 kts 284°
2026-05-06 17:10 51.60521 0.76935 35993 ft 440 kts 284°
2026-05-06 17:11 51.62160 0.67439 35996 ft 440 kts 284°
2026-05-06 17:11 51.63769 0.58064 35978 ft 432 kts 284°
2026-05-06 17:12 51.65386 0.48737 35995 ft 436 kts 284°
2026-05-06 17:12 51.67010 0.39223 35979 ft 442 kts 283°
2026-05-06 17:13 51.68355 0.31294 35992 ft 442 kts 284°
2026-05-06 17:13 51.70245 0.20201 35340 ft 436 kts 284°
2026-05-06 17:13 51.71046 0.15453 34362 ft 444 kts 283°
2026-05-06 17:14 51.71852 0.10653 33735 ft 441 kts 283°
2026-05-06 17:14 51.72378 0.07499 33305 ft 438 kts 283°
2026-05-06 17:14 51.73170 0.02769 32697 ft 434 kts 283°
2026-05-06 17:14 51.73941 -0.01910 32366 ft 429 kts 284°
2026-05-06 17:15 51.74704 -0.06509 32063 ft 418 kts 284°
2026-05-06 17:15 51.75449 -0.10965 31692 ft 409 kts 284°
2026-05-06 17:15 51.76182 -0.15389 31105 ft 406 kts 284°
2026-05-06 17:15 51.76909 -0.19806 30498 ft 404 kts 284°
2026-05-06 17:16 51.77630 -0.24180 29896 ft 401 kts 284°
2026-05-06 17:16 51.78346 -0.28518 29259 ft 398 kts 284°
2026-05-06 17:16 51.79053 -0.32821 28596 ft 394 kts 284°
2026-05-06 17:16 51.79757 -0.37092 28010 ft 391 kts 286°
2026-05-06 17:17 51.80850 -0.41011 27352 ft 388 kts 302°
2026-05-06 17:17 51.82658 -0.44220 26650 ft 387 kts 320°
2026-05-06 17:17 51.84919 -0.46560 25967 ft 385 kts 328°
2026-05-06 17:17 51.87254 -0.48672 25326 ft 381 kts 328°
2026-05-06 17:18 51.89549 -0.50782 24670 ft 378 kts 328°
2026-05-06 17:18 51.91804 -0.52917 24045 ft 374 kts 327°
2026-05-06 17:18 51.94033 -0.55065 23466 ft 369 kts 327°
2026-05-06 17:18 51.96214 -0.57184 22883 ft 362 kts 327°
2026-05-06 17:19 51.98347 -0.59265 22374 ft 354 kts 327°
2026-05-06 17:19 52.00437 -0.61309 21896 ft 346 kts 327°
2026-05-06 17:19 52.02476 -0.63305 21452 ft 338 kts 327°
2026-05-06 17:19 52.04462 -0.65252 21030 ft 330 kts 327°
2026-05-06 17:20 52.06416 -0.67171 20613 ft 325 kts 327°
2026-05-06 17:20 52.08351 -0.69077 20239 ft 323 kts 327°
2026-05-06 17:20 52.10274 -0.70969 19861 ft 322 kts 327°
2026-05-06 17:20 52.12187 -0.72852 19490 ft 321 kts 327°
2026-05-06 17:21 52.14096 -0.74731 19110 ft 320 kts 327°
2026-05-06 17:21 52.16000 -0.76613 18737 ft 320 kts 327°
2026-05-06 17:21 52.17883 -0.78473 18368 ft 321 kts 327°
2026-05-06 17:21 52.19787 -0.80368 17973 ft 320 kts 327°
2026-05-06 17:22 52.21686 -0.82263 17590 ft 320 kts 327°
2026-05-06 17:22 52.23529 -0.84267 17227 ft 315 kts 319°
2026-05-06 17:22 52.25001 -0.86826 16857 ft 307 kts 303°
2026-05-06 17:22 52.25891 -0.89961 16328 ft 305 kts 286°
2026-05-06 17:23 52.26349 -0.93342 15816 ft 304 kts 281°
2026-05-06 17:23 52.26742 -0.96722 15334 ft 302 kts 281°
2026-05-06 17:23 52.27136 -1.00080 14856 ft 300 kts 282°
2026-05-06 17:23 52.27541 -1.03417 14379 ft 299 kts 282°
2026-05-06 17:24 52.27950 -1.06739 13885 ft 298 kts 282°
2026-05-06 17:24 52.28359 -1.10043 13332 ft 295 kts 282°
2026-05-06 17:24 52.28773 -1.13315 12778 ft 293 kts 283°
2026-05-06 17:24 52.29187 -1.16570 12248 ft 291 kts 283°
2026-05-06 17:25 52.29593 -1.19796 11703 ft 289 kts 282°
2026-05-06 17:25 52.29982 -1.23012 11170 ft 288 kts 282°
2026-05-06 17:25 52.30371 -1.26207 10692 ft 285 kts 283°
2026-05-06 17:25 52.30764 -1.29369 10193 ft 283 kts 283°
2026-05-06 17:26 52.31160 -1.32503 9707 ft 280 kts 283°
2026-05-06 17:26 52.31540 -1.35618 9156 ft 279 kts 282°
2026-05-06 17:26 52.31863 -1.38721 8707 ft 276 kts 274°
2026-05-06 17:26 52.31704 -1.41840 8346 ft 276 kts 262°
2026-05-06 17:27 52.31337 -1.44904 8005 ft 272 kts 260°
2026-05-06 17:27 52.30959 -1.47894 7668 ft 267 kts 260°
2026-05-06 17:27 52.30593 -1.50805 7331 ft 262 kts 260°
2026-05-06 17:27 52.30227 -1.53739 6905 ft 258 kts 260°
2026-05-06 17:28 52.29874 -1.56580 6454 ft 253 kts 260°
2026-05-06 17:28 52.29525 -1.59337 5996 ft 247 kts 260°
2026-05-06 17:28 52.29183 -1.62022 5608 ft 236 kts 260°
2026-05-06 17:28 52.28910 -1.64596 5269 ft 222 kts 274°
2026-05-06 17:29 52.29296 -1.66861 5039 ft 199 kts 304°
2026-05-06 17:29 52.30297 -1.68241 4736 ft 186 kts 339°
2026-05-06 17:29 52.31547 -1.68391 4357 ft 182 kts 12°
2026-05-06 17:29 52.32640 -1.67402 3985 ft 181 kts 36°
2026-05-06 17:30 52.33705 -1.66310 3630 ft 180 kts 30°
2026-05-06 17:30 52.34806 -1.65298 3257 ft 182 kts 22°
2026-05-06 17:30 52.36064 -1.65119 2857 ft 184 kts 354°
2026-05-06 17:30 52.37274 -1.65820 2408 ft 185 kts 335°
2026-05-06 17:31 52.38349 -1.66963 1966 ft 184 kts 325°
2026-05-06 17:31 52.39387 -1.68137 1621 ft 177 kts 327°
2026-05-06 17:31 52.40370 -1.69232 1393 ft 168 kts 328°
2026-05-06 17:31 52.41275 -1.70248 1145 ft 144 kts 328°
2026-05-06 17:32 52.42081 -1.71162 895 ft 142 kts 330°
2026-05-06 17:32 52.42904 -1.72060 734 ft 142 kts 329°
2026-05-06 17:32 52.43722 -1.72972 550 ft 142 kts 330°
2026-05-06 17:32 52.44540 -1.73866 393 ft 141 kts 330°
2026-05-06 17:33 52.45322 -1.74731 328 ft 122 kts 326°
2026-05-06 17:33 52.45850 -1.75318 324 ft 57 kts 326°
2026-05-06 17:33 52.46090 -1.75582 314 ft 12 kts 324°
2026-05-06 17:33 52.46147 -1.75612 315 ft 8 kts 27°
2026-05-06 17:34 52.46185 -1.75535 313 ft 9 kts 57°
2026-05-06 17:34 52.46216 -1.75439 311 ft 10 kts 87°
2026-05-06 17:34 52.46171 -1.75346 308 ft 12 kts 147°
2026-05-06 17:34 52.46097 -1.75266 310 ft 14 kts 146°
2026-05-06 17:35 52.46013 -1.75172 310 ft 15 kts 146°
2026-05-06 17:35 52.45920 -1.75068 311 ft 17 kts 146°
2026-05-06 17:35 52.45816 -1.74953 313 ft 19 kts 146°
2026-05-06 17:36 52.45577 -1.74687 326 ft 23 kts 146°
2026-05-06 17:36 52.45453 -1.74515 326 ft 24 kts 112°
2026-05-06 17:36 52.45379 -1.74260 325 ft 26 kts 116°
2026-05-06 17:36 52.45311 -1.74038 327 ft 9 kts 117°
2026-05-06 17:37 52.45265 -1.73957 327 ft 11 kts 146°
2026-05-06 17:37 52.45197 -1.73882 328 ft 13 kts 146°
2026-05-06 17:37 52.45119 -1.73795 328 ft 13 kts 146°
2026-05-06 17:37 52.45124 -1.73662 329 ft 14 kts 54°
2026-05-06 17:38 52.45173 -1.73546 327 ft 7 kts 56°
2026-05-06 17:38 52.45177 -1.73490 328 ft 1 kts 137°
2026-05-06 17:38 52.45170 -1.73479 328 ft 2 kts 137°
2026-05-06 17:38 52.45156 -1.73458 329 ft 3 kts 139°
2026-05-06 17:39 52.45145 -1.73443 328 ft 1 kts 139°
2026-05-06 17:39 52.45143 -1.73440 328 ft 0 kts 139°
2026-05-06 17:39 52.45142 -1.73439 328 ft 0 kts 139°